INTELSAT 33E (IS-33E)

Last updated on Mon Oct 21 2024 00:02:40 GMT+0000 (Coordinated Universal Time)

1 41748U 16053B 24293.78382641 .00000046 00000+0 00000+0 0 9996 2 41748 0.0158 265.1044 0002852 315.5838 150.2638 1.00273292 30152
UTC large
Height (km)
Speed (km/s)
/
Latitude / Longitude
Inclination (degrees)
Orbital Period (minutes)
Azimuth
Elevation
Range (km)
Doppler Factor

Next 0 passes for location: London (51.5072 / 0.1276)

Sorry there are no passes over London.